This is the latest recevied weather packets stored in our database for station/object PD2BVG. If no packets are shown the sender has not sent any weather packets the latest 10 day(s).
| Time | Temp. | Humidity | Pressure | Rain* | Wind** | Luminosity | Snow |
|---|---|---|---|---|---|---|---|
| 1787825272 | 21.11° C | 85% | 1009.3 hPa | 0 mm | - | 339 W/m² | - |
| 1787825211 | 21.11° C | 85% | 1009.3 hPa | 0 mm | - | 744 W/m² | - |
| 1787825152 | 21.11° C | 85% | 1009.5 hPa | 0 mm | - | 294 W/m² | - |
| 1787825091 | 21.11° C | 85% | 1009.5 hPa | 0 mm | - | 800 W/m² | - |
| 1787825031 | 21.11° C | 84% | 1009.5 hPa | 0 mm | - | 288 W/m² | - |
| 1787824972 | 21.11° C | 85% | 1009.5 hPa | 0 mm | - | 206 W/m² | - |
| 1787824911 | 21.11° C | 84% | 1009.5 hPa | 0 mm | - | 178 W/m² | - |
| 1787824853 | 21.11° C | 84% | 1009.5 hPa | 0 mm | - | 199 W/m² | - |
| 1787824793 | 21.11° C | 84% | 1009.5 hPa | 0 mm | - | 165 W/m² | - |
| 1787824731 | 21.11° C | 84% | 1009.5 hPa | 0 mm | - | 164 W/m² | - |
| 1787824671 | 21.11° C | 84% | 1009.5 hPa | 0 mm | - | 157 W/m² | - |
| 1787824611 | 21.11° C | 84% | 1009.4 hPa | 0 mm | - | 150 W/m² | - |
| 1787824551 | 21.11° C | 84% | 1009.4 hPa | 0 mm | - | 141 W/m² | - |
| 1787824491 | 21.11° C | 84% | 1009.3 hPa | 0 mm | - | 132 W/m² | - |
| 1787824430 | 21.11° C | 84% | 1009.1 hPa | 0 mm | - | 150 W/m² | - |
| 1787824371 | 21.11° C | 84% | 1009.1 hPa | 0 mm | - | 150 W/m² | - |
| 1787824311 | 21.11° C | 84% | 1009.1 hPa | 0 mm | - | 165 W/m² | - |
| 1787824254 | 21.11° C | 84% | 1009.2 hPa | 0 mm | - | 165 W/m² | - |
| 1787824192 | 21.11° C | 84% | 1009.2 hPa | 0 mm | - | 172 W/m² | - |
| 1787824131 | 21.11° C | 84% | 1009.3 hPa | 0 mm | - | 174 W/m² | - |
| 1787824072 | 21.11° C | 84% | 1009.3 hPa | 0 mm | - | 176 W/m² | - |
| 1787824012 | 21.11° C | 84% | 1009.4 hPa | 0 mm | - | 176 W/m² | - |
| 1787823952 | 21.11° C | 85% | 1009.3 hPa | 0 mm | - | 178 W/m² | - |
| 1787823891 | 21.11° C | 85% | 1009.3 hPa | 0 mm | - | 178 W/m² | - |
| 1787823831 | 21.11° C | 85% | 1009.3 hPa | 0 mm | - | 179 W/m² | - |
* Rain latest hour (hover to see other rain measurements)
** Current wind speed in m/s (hover to see current wind gust speed)